Temperature
21 20 20 20 20 22 24 25 26 26 27 27 27 25 24 23 22 20 20 20 20 20 20 20 19 19 19 19 19 19 19 19 19 19 19 19 19 19 19 19 19 19 19 19 19 19 19 19 18
20 20 20 20 21 22 23 25 26 27 27 27 26 25 24 22 21 20 20 20 20 19 19 19 19 19 19 19 19 19 18 18 18 18 18 18 18 18 19 19 19 19 19 18 18 18 18 18 18
21 20 21 21 22 23 24 25 27 27 27 27 26 24 22 20 20 19 19 20 20 19 19 19 19 19 19 19 19 19 18 18 18 18 18 18 18 18 18 18 18 18 19 18 18 18 18 18 18
21 21 22 23 24 25 26 26 27 27 27 27 25 23 20 19 19 19 19 19 19 19 19 19 19 19 19 19 19 19 19 18 18 18 18 18 18 18 18 18 18 18 18 18 18 18 18 18 18
21 22 22 23 24 26 27 27 27 27 27 26 25 22 20 19 19 19 19 19 19 19 19 19 19 19 19 19 19 18 18 18 18 18 18 18 18 18 18 18 18 18 18 18 18 18 18 18 18
22 24 22 22 24 26 27 27 27 27 26 26 25 22 19 19 19 19 19 19 19 19 18 18 18 18 19 18 18 18 18 18 18 18 18 18 18 18 18 18 18 18 18 18 18 18 18 18 18
23 24 24 24 24 25 27 27 26 26 26 25 24 22 20 19 19 19 19 19 19 19 18 18 18 18 18 18 18 18 18 18 18 18 18 18 18 18 18 18 18 18 18 18 18 18 18 18 18
24 25 24 23 25 25 27 26 26 26 25 24 24 22 20 19 19 19 19 19 19 19 18 18 18 18 18 18 18 18 18 18 18 18 18 18 18 18 18 18 18 18 18 18 18 18 18 18 18
25 25 22 23 25 26 27 26 25 25 24 23 22 21 20 20 20 20 20 19 19 19 18 18 18 18 18 17 17 17 17 18 18 18 18 18 18 18 18 18 18 18 18 18 18 18 18 18 18
27 24 23 25 27 27 27 26 26 25 24 23 22 21 20 20 20 20 20 19 19 19 18 18 18 17 17 17 17 17 17 17 17 17 17 18 18 18 18 18 18 18 18 18 18 18 18 18 18
27 26 26 27 27 27 27 26 26 26 24 23 22 21 21 21 21 20 20 19 19 18 18 17 17 17 17 16 16 16 16 16 16 17 17 17 17 17 18 18 17 18 18 18 18 18 18 18 18
27 28 28 27 26 27 27 26 25 24 24 23 22 21 21 21 21 20 20 19 19 18 17 17 16 16 16 16 16 16 16 16 16 16 16 17 17 17 17 17 17 17 18 18 17 17 18 18 18
26 26 27 26 26 26 26 26 25 23 22 22 21 21 21 21 20 20 19 19 19 18 17 17 16 15 15 15 15 15 16 16 16 16 16 16 16 16 17 17 17 17 17 17 17 17 17 17 18
25 25 26 26 26 26 26 25 24 23 22 22 22 21 21 20 20 20 19 19 18 18 17 16 16 15 15 15 15 15 15 15 16 16 16 16 16 16 16 16 17 17 17 17 17 17 17 18 18
27 27 26 26 26 26 25 25 25 23 22 22 22 22 21 20 20 20 19 18 18 17 16 16 16 15 15 14 14 15 15 15 15 15 15 15 16 16 16 16 16 17 17 17 17 17 17 17 18
27 26 25 25 24 24 24 24 24 22 23 22 22 22 21 21 20 20 19 18 17 16 16 16 15 15 15 14 14 14 14 15 15 15 15 15 15 15 16 16 16 16 16 16 16 17 17 17 17
25 23 22 23 25 25 25 25 24 23 23 23 23 23 22 21 21 20 19 18 17 16 16 16 15 15 14 14 14 14 14 14 14 14 14 14 14 15 15 15 16 16 16 16 16 16 17 17 17
24 22 23 24 25 25 26 26 25 23 23 23 23 23 23 22 21 20 18 17 17 16 16 16 16 15 14 14 14 14 14 14 14 14 14 14 14 14 15 15 15 15 16 16 16 16 16 16 17
24 25 25 27 27 26 26 26 26 24 23 23 23 23 23 22 21 19 18 18 17 16 16 16 16 15 14 14 14 14 14 14 14 14 14 14 14 14 14 14 15 15 15 15 16 16 16 16 16
23 25 27 28 27 26 26 26 27 25 24 24 23 23 23 22 21 20 19 18 17 16 16 16 15 15 14 14 13 13 14 14 14 13 14 14 14 14 14 14 14 14 15 15 15 15 16 16 16
26 27 27 26 27 27 26 25 26 26 25 24 23 23 23 22 21 20 19 18 17 17 16 15 15 14 14 13 13 13 13 13 13 13 13 13 13 13 14 14 14 14 14 14 15 15 15 15 16
27 27 26 26 25 26 26 24 25 25 24 24 23 23 22 21 20 19 18 17 17 16 15 15 15 14 13 13 13 13 13 13 13 13 13 13 13 13 13 13 14 14 14 14 14 14 15 15 15
26 26 26 26 25 25 26 25 25 25 24 24 24 23 22 21 20 19 18 17 16 16 15 15 14 14 13 13 13 13 13 13 13 13 13 13 13 13 13 13 13 13 13 14 14 14 14 15 15
26 26 26 26 25 24 26 26 25 25 25 24 24 23 22 21 20 19 18 17 16 16 15 15 14 14 13 13 13 13 13 13 13 13 13 13 13 13 13 13 13 13 13 13 14 14 14 14 14
26 25 24 24 24 25 26 26 25 24 25 24 24 23 22 21 20 19 18 17 17 16 15 15 15 14 14 13 13 13 13 13 13 12 12 12 13 12 12 12 12 13 13 13 13 13 14 14 14
26 26 24 24 25 26 26 26 24 25 24 24 23 23 22 21 20 19 18 17 17 16 16 15 15 14 14 14 13 13 13 13 12 12 12 12 12 12 12 12 12 12 12 13 13 13 13 13 14
26 26 27 25 26 26 26 26 24 25 25 24 23 22 22 21 20 19 18 18 17 16 16 15 15 15 14 14 14 13 13 12 12 12 12 12 12 12 12 12 12 12 12 12 12 12 13 13 13
25 25 25 25 24 25 26 26 24 24 24 24 24 23 22 21 20 19 18 18 17 17 16 16 15 15 15 14 14 13 13 13 12 12 12 12 12 12 12 12 12 12 12 12 12 12 12 12 13
25 25 25 25 25 24 24 24 25 24 24 24 24 23 22 21 20 20 19 18 17 17 17 16 16 16 15 14 14 14 13 13 13 13 12 12 12 12 12 12 12 12 12 12 12 12 12 12 12
26 25 25 24 25 25 24 23 25 24 24 24 23 23 22 21 20 19 19 18 18 17 17 17 16 16 15 15 14 14 14 13 13 13 13 12 12 12 12 12 12 12 12 11 11 11 11 12 12
Wind_Speed
10 10 6 2 2 1 4 6 9 9 7 9 11 12 13 13 9 7 3 8 9 13 14 13 10 7 6 4 3 2 2 1 2 2 2 2 2 2 2 2 2 2 2 2 2 2 2 3 3
9 7 4 2 1 1 4 5 8 9 8 6 10 13 13 11 10 6 5 6 9 12 13 13 11 8 6 4 3 3 3 3 3 3 4 4 4 4 3 3 3 3 2 2 2 2 2 2 2
9 7 3 3 0 3 4 5 7 9 9 8 10 12 8 6 7 4 4 6 11 13 15 13 12 10 7 6 4 4 3 4 4 5 5 6 6 5 5 5 4 4 4 3 3 2 3 2 2
5 4 4 2 3 8 8 6 6 7 9 10 10 10 7 7 4 5 7 10 12 11 13 13 12 10 9 7 6 5 4 4 5 6 6 7 7 7 7 6 6 6 5 5 4 3 3 3 3
4 3 2 2 4 8 8 8 9 8 10 12 12 9 7 7 7 8 9 9 10 9 9 10 10 9 8 6 5 5 4 4 4 5 6 7 7 8 8 8 8 7 7 6 5 5 5 5 4
3 3 1 1 4 7 6 7 8 8 9 10 10 10 6 6 7 7 8 8 8 7 6 7 7 6 5 4 4 3 3 4 4 5 6 7 8 8 9 9 9 9 8 8 7 6 6 6 6
4 4 2 3 4 5 6 7 9 8 9 9 8 8 6 7 6 6 7 6 5 4 3 3 3 3 3 1 0 2 3 4 4 5 5 6 8 9 10 10 10 10 10 9 8 8 7 7 7
5 5 5 4 4 5 6 6 7 8 8 8 8 7 7 6 5 5 5 5 4 3 2 2 1 1 1 3 5 4 5 6 6 6 7 7 8 10 11 11 11 11 11 10 10 9 9 9 9
8 3 2 3 4 5 5 5 6 5 10 12 12 11 9 6 4 4 4 4 4 4 3 1 2 1 2 4 3 5 6 8 8 8 8 8 7 8 8 10 11 11 11 11 11 11 11 10 11
7 1 3 0 3 6 5 4 4 4 8 10 10 9 7 5 3 4 5 6 6 6 6 5 5 3 4 4 3 3 5 6 7 8 8 6 7 7 7 8 9 10 10 10 11 12 12 12 11
5 1 3 4 5 5 4 3 1 1 4 6 8 7 5 3 4 5 6 6 6 6 8 7 7 6 5 3 4 3 4 6 7 8 8 7 7 7 7 6 7 8 9 8 9 10 10 10 10
4 1 3 5 4 2 2 3 2 6 6 8 8 6 4 4 5 6 6 6 5 6 5 6 7 7 6 5 4 4 3 3 3 5 6 5 3 3 4 4 5 6 6 5 5 4 7 9 9
3 2 3 5 4 2 1 3 3 6 6 7 7 5 3 4 5 5 5 7 6 6 5 6 7 7 6 4 3 4 3 2 4 4 5 6 3 4 4 3 4 6 7 5 4 4 5 5 6
4 5 6 6 6 4 3 4 5 7 8 7 6 5 4 4 3 4 6 7 7 7 7 7 6 6 6 6 6 5 4 5 4 3 5 7 5 4 4 4 4 4 6 7 6 6 5 5 4
5 7 7 6 5 3 3 6 8 12 9 7 6 6 4 2 1 2 6 7 8 8 8 6 5 7 7 7 7 5 5 6 4 4 7 7 5 3 3 3 3 3 6 7 6 6 4 5 4
7 8 6 5 5 3 4 4 11 12 9 8 6 6 6 4 3 4 7 7 8 7 7 6 7 7 6 6 5 4 5 5 4 6 7 9 9 7 2 2 3 3 4 4 5 6 5 5 4
7 3 5 3 8 6 6 4 11 10 8 7 7 6 6 4 2 7 8 7 6 5 6 6 5 5 6 6 5 4 4 4 4 5 6 8 9 9 5 3 3 3 2 3 5 5 5 6 6
3 1 6 7 7 5 6 6 9 12 8 6 5 5 4 2 4 8 6 3 2 3 5 5 4 5 6 5 6 4 5 5 3 4 5 7 7 8 6 4 4 3 2 3 3 4 5 5 6
7 7 9 2 6 1 7 7 5 12 9 7 7 6 4 2 5 8 3 2 4 4 5 5 5 6 5 4 5 5 5 5 4 4 6 7 8 8 6 5 4 4 3 4 4 4 5 5 5
10 13 9 2 5 2 8 8 5 10 9 6 5 4 3 4 4 6 3 5 4 3 4 6 7 6 5 4 5 5 5 5 4 4 4 7 7 7 7 7 5 4 3 4 4 3 3 3 4
11 7 7 8 8 7 7 8 7 7 6 6 4 3 4 1 2 4 4 5 3 4 6 7 7 6 7 7 4 6 5 4 5 5 4 4 5 6 5 6 6 6 4 3 4 3 3 3 3
6 6 5 7 8 7 3 3 8 9 7 7 7 6 4 2 4 3 3 4 4 6 6 7 7 7 6 6 4 6 5 5 5 4 4 5 4 4 5 5 6 6 5 4 5 3 2 3 4
4 4 5 7 8 10 7 6 6 8 6 6 5 4 4 4 4 4 3 3 3 4 4 3 4 5 5 5 6 4 4 4 4 4 6 6 4 3 4 5 5 6 4 5 5 5 4 3 4
1 5 8 8 7 9 6 4 5 5 5 5 5 5 5 4 5 5 5 3 1 2 2 2 2 2 2 4 6 4 4 6 6 5 6 5 4 4 6 6 6 6 5 5 5 5 5 4 4
5 7 5 7 7 4 7 2 4 10 8 5 4 3 6 6 4 5 4 3 2 1 2 3 3 3 3 3 5 6 5 5 6 5 5 5 4 4 6 6 6 5 5 6 5 5 5 5 4
5 6 6 6 3 3 5 3 8 10 8 5 4 3 4 6 5 4 4 3 2 1 1 1 3 4 2 2 4 5 5 4 4 5 5 5 4 3 5 6 6 6 5 6 5 4 5 5 5
5 5 3 6 9 5 6 8 8 7 8 6 4 3 3 5 6 5 4 3 2 1 1 1 3 4 2 2 3 3 4 4 5 6 5 5 6 5 5 5 6 6 5 5 5 4 5 5 5
5 8 4 4 5 5 3 5 6 7 4 4 4 5 5 4 5 6 6 5 3 2 2 3 4 3 1 2 3 3 2 3 4 4 3 4 6 6 6 5 6 6 6 5 5 5 6 6 6
6 5 4 5 5 3 3 5 6 7 5 3 2 2 3 4 5 4 4 4 5 5 4 5 4 2 1 1 2 3 2 2 4 4 2 4 5 6 7 6 6 6 5 6 6 6 6 7 7
3 5 4 4 5 2 2 4 6 6 4 1 1 1 3 4 4 4 4 4 4 3 3 3 2 1 2 1 2 4 3 3 4 4 4 5 6 6 7 7 6 6 6 6 7 7 8 7 7
Wind_Direction
200 213 209 221 259 265 50 50 52 33 40 46 49 65 68 52 48 79 40 31 80 103 115 112 103 94 85 75 58 35 12 345 322 311 302 299 298 304 315 320 326 330 333 342 355 355 359 3 7
217 208 215 228 250 80 62 50 58 49 40 46 63 68 67 59 52 73 30 23 69 90 99 99 95 85 73 57 32 6 346 325 305 294 290 285 281 280 282 288 293 297 299 295 308 316 316 323 336
237 227 237 228 270 89 79 52 54 62 48 58 67 60 53 41 43 47 15 42 67 79 84 86 83 74 62 49 34 13 345 321 303 292 287 282 276 273 272 272 275 277 278 276 271 278 288 290 294
222 227 254 258 65 71 73 67 57 58 53 61 78 74 69 40 49 48 41 56 66 73 81 80 76 71 62 52 40 23 356 328 306 294 286 280 276 270 266 265 266 267 268 266 262 262 270 273 274
231 240 288 343 79 74 59 55 64 58 54 62 79 89 82 57 67 64 61 59 68 73 81 85 83 76 66 54 41 23 1 339 319 303 291 282 276 270 265 259 261 264 264 262 259 258 260 262 262
254 236 218 41 86 88 69 44 57 63 53 50 87 97 81 77 70 73 73 66 66 68 74 95 102 94 78 56 35 13 348 329 318 304 293 283 277 274 268 259 257 258 258 258 256 253 255 256 255
258 268 269 107 100 93 77 50 44 56 53 35 54 95 105 89 84 88 95 96 90 86 86 85 99 126 133 140 280 326 313 306 300 295 288 283 273 265 263 258 253 251 251 251 250 249 249 251 250
264 287 359 360 81 92 87 78 54 48 62 44 42 94 106 105 117 105 101 98 94 90 83 99 98 98 172 213 216 230 264 276 281 281 274 273 271 260 254 253 248 244 245 246 248 247 246 246 246
263 285 29 343 38 96 97 99 89 78 81 71 65 79 100 116 112 99 85 62 49 33 27 30 7 347 289 264 244 227 255 256 261 267 260 257 260 255 245 244 244 242 240 243 245 246 246 245 243
234 273 163 224 32 98 99 85 110 123 107 103 99 102 117 121 98 66 45 37 26 14 12 4 354 335 311 307 317 264 275 263 246 249 255 247 248 251 251 251 246 245 240 240 245 247 246 242 244
250 212 135 91 51 86 117 109 43 94 104 112 122 123 114 99 69 47 34 30 17 20 12 357 1 342 339 340 338 322 289 271 258 250 246 245 244 243 239 238 238 235 238 239 243 241 242 240 241
235 70 73 95 88 106 124 120 88 47 80 98 103 111 110 74 51 35 23 19 10 35 2 14 4 347 348 348 340 298 271 262 270 271 267 254 239 234 227 219 218 207 214 223 238 234 244 256 256
279 90 90 117 147 143 111 123 121 116 106 110 122 122 103 66 32 27 24 15 7 29 12 37 3 350 345 340 305 313 313 313 304 293 277 266 243 248 242 226 213 209 205 203 206 218 231 252 271
151 172 178 171 162 160 184 178 181 148 147 153 160 161 129 78 23 359 25 13 10 20 16 35 356 358 346 346 339 329 324 308 296 291 285 277 257 245 249 238 226 218 209 204 205 212 224 240 262
184 194 195 186 188 162 246 236 195 140 167 179 191 174 134 105 302 21 38 20 17 16 9 17 357 11 355 350 340 329 317 325 334 328 319 312 299 268 259 262 256 232 218 209 203 210 215 232 253
234 234 229 183 182 155 250 302 131 146 179 191 206 189 165 171 235 67 46 30 22 15 357 4 12 0 354 347 326 321 328 345 339 341 341 342 339 334 310 277 269 255 231 206 206 204 206 217 227
226 273 310 232 196 181 224 278 150 164 188 203 206 223 181 198 148 77 52 32 20 17 349 358 21 1 0 348 328 340 344 344 345 350 356 352 345 335 334 318 291 278 256 229 228 212 201 210 213
268 217 266 249 179 215 265 277 168 170 190 221 221 222 221 209 79 79 54 35 31 40 348 345 21 23 10 5 338 356 353 347 346 357 1 351 336 333 329 316 320 323 303 263 248 240 215 209 209
317 269 266 248 133 271 291 286 202 168 181 212 234 224 226 132 94 92 72 63 45 40 342 339 32 24 17 12 342 347 351 340 357 1 4 352 351 347 333 331 326 321 310 290 268 253 238 225 205
265 272 286 39 99 326 297 286 240 169 181 205 240 250 218 153 121 114 97 61 29 18 351 3 32 22 20 9 355 344 352 338 6 1 3 359 360 358 351 348 336 322 311 301 295 270 250 250 208
249 283 355 346 328 280 268 263 205 156 172 183 208 269 294 111 80 64 65 70 5 23 23 6 24 23 25 1 15 348 341 346 2 354 357 344 1 16 5 346 344 335 334 314 301 279 263 255 241
299 48 358 318 298 285 226 292 160 159 169 187 192 201 219 142 117 91 59 53 22 31 28 6 19 16 20 359 1 340 349 353 339 338 346 345 13 23 14 356 347 341 343 336 320 323 276 258 258
27 18 305 286 280 282 246 246 147 147 175 175 162 171 164 143 133 126 105 62 36 31 32 10 14 11 17 350 324 327 356 325 323 339 354 347 346 12 29 4 346 343 345 344 337 331 313 271 255
35 275 258 247 256 258 228 242 134 142 108 96 113 136 140 143 139 136 127 125 94 59 40 5 1 5 3 337 324 336 343 335 338 355 355 343 342 1 20 3 348 345 348 338 331 323 311 294 277
232 258 259 223 217 209 120 191 95 97 85 74 71 93 126 131 152 155 155 157 151 112 51 351 5 352 357 351 335 343 357 345 349 2 341 333 342 355 0 355 337 335 334 326 328 325 309 294 283
244 271 284 302 290 124 158 179 103 106 108 111 124 122 132 151 159 155 156 157 181 179 110 351 334 305 324 343 349 340 347 1 355 342 333 337 338 342 350 341 325 324 335 332 329 315 313 316 307
270 245 303 315 295 282 171 128 124 135 143 139 139 146 184 165 157 171 174 177 194 186 135 278 294 300 334 352 334 333 2 360 347 332 343 344 331 333 338 322 323 327 330 328 336 330 323 324 309
292 332 309 265 302 299 154 145 131 134 126 139 157 167 173 173 174 175 171 173 188 206 210 251 252 262 348 356 335 350 338 335 317 303 333 327 312 310 310 324 331 331 341 349 358 339 330 326 312
188 217 242 275 275 287 338 75 81 92 76 35 33 110 142 165 167 167 168 180 189 200 214 232 238 203 120 341 328 307 290 291 293 293 322 313 315 334 339 336 327 331 347 359 356 339 332 327 319
218 255 262 269 301 290 277 108 102 105 114 130 334 89 137 135 151 164 177 194 209 209 235 246 269 223 151 129 319 300 299 295 314 336 351 339 335 335 328 328 331 341 357 1 349 338 336 327 322
Height
1526 1527 1528 1530 1531 1532 1529 1520 1515 1514 1513 1514 1515 1516 1522 1526 1530 1540 1540 1538 1537 1536 1537 1538 1539 1539 1540 1540 1541 1542 1542 1543 1543 1543 1544 1544 1545 1545 1545 1545 1545 1545 1545 1545 1545 1545 1546 1546 1546
1526 1528 1530 1530 1532 1537 1533 1519 1517 1516 1515 1515 1516 1520 1524 1529 1534 1537 1538 1538 1538 1537 1537 1538 1539 1539 1540 1540 1541 1541 1542 1542 1542 1543 1543 1543 1543 1544 1544 1544 1544 1544 1545 1545 1545 1545 1545 1545 1546
1526 1528 1529 1527 1528 1531 1529 1519 1516 1516 1516 1516 1519 1524 1530 1535 1537 1538 1539 1538 1538 1537 1538 1538 1538 1539 1539 1539 1540 1540 1541 1541 1541 1541 1541 1542 1542 1542 1543 1543 1543 1543 1543 1544 1544 1544 1544 1545 1545
1527 1529 1528 1526 1526 1519 1518 1516 1516 1517 1517 1518 1521 1528 1535 1538 1538 1539 1539 1538 1538 1537 1537 1538 1538 1538 1538 1539 1539 1539 1539 1539 1539 1539 1540 1540 1540 1541 1541 1541 1542 1542 1542 1542 1543 1543 1543 1544 1544
1527 1527 1528 1529 1524 1517 1515 1516 1517 1519 1519 1521 1524 1532 1538 1540 1539 1539 1539 1539 1538 1538 1537 1537 1537 1537 1537 1537 1537 1537 1537 1537 1537 1537 1538 1538 1538 1539 1539 1539 1540 1540 1541 1541 1541 1542 1542 1542 1543
1527 1524 1532 1534 1524 1517 1517 1518 1519 1521 1522 1523 1526 1532 1539 1541 1540 1540 1539 1539 1538 1538 1538 1537 1536 1536 1536 1535 1535 1535 1535 1535 1535 1535 1536 1536 1536 1536 1537 1537 1538 1538 1539 1539 1540 1540 1540 1541 1541
1526 1521 1524 1525 1524 1521 1518 1520 1521 1522 1524 1527 1528 1533 1540 1541 1541 1540 1540 1539 1539 1538 1538 1537 1536 1535 1534 1533 1533 1533 1533 1533 1533 1533 1533 1533 1534 1534 1535 1535 1536 1536 1537 1538 1538 1538 1539 1539 1540
1522 1519 1525 1527 1522 1522 1519 1521 1524 1525 1528 1530 1530 1534 1539 1542 1541 1541 1540 1540 1539 1538 1537 1536 1535 1534 1533 1531 1530 1530 1529 1529 1529 1529 1530 1530 1531 1531 1532 1532 1533 1534 1535 1536 1536 1537 1537 1538 1538
1519 1521 1533 1528 1520 1519 1519 1521 1526 1528 1530 1532 1534 1537 1540 1541 1541 1541 1541 1541 1540 1539 1537 1536 1535 1533 1532 1530 1529 1527 1527 1526 1526 1526 1526 1526 1527 1528 1529 1529 1530 1531 1532 1533 1534 1535 1535 1536 1536
1515 1522 1527 1519 1515 1516 1519 1522 1525 1526 1530 1533 1536 1539 1540 1541 1541 1541 1541 1541 1540 1539 1537 1536 1534 1532 1531 1529 1527 1525 1524 1524 1523 1523 1523 1523 1523 1524 1525 1526 1527 1528 1529 1530 1531 1533 1533 1534 1534
1511 1514 1512 1514 1515 1516 1519 1522 1525 1526 1529 1533 1536 1538 1540 1541 1541 1541 1541 1540 1539 1538 1536 1535 1533 1531 1529 1527 1526 1524 1522 1521 1521 1520 1520 1520 1520 1521 1522 1522 1524 1524 1526 1527 1528 1530 1531 1531 1532
1510 1510 1510 1513 1517 1517 1519 1522 1525 1528 1531 1533 1536 1538 1539 1540 1541 1541 1541 1540 1539 1536 1535 1533 1531 1530 1528 1526 1524 1522 1521 1520 1519 1518 1518 1518 1517 1518 1518 1519 1520 1521 1522 1523 1525 1526 1527 1529 1530
1509 1511 1513 1515 1517 1518 1520 1522 1526 1530 1533 1534 1537 1538 1539 1540 1541 1541 1540 1539 1538 1536 1534 1532 1530 1529 1527 1525 1523 1521 1520 1519 1518 1517 1516 1515 1515 1515 1516 1516 1517 1518 1519 1519 1521 1522 1523 1525 1526
1511 1513 1513 1515 1516 1518 1520 1522 1525 1529 1532 1534 1536 1537 1538 1540 1540 1540 1539 1538 1537 1535 1534 1531 1529 1527 1525 1523 1521 1520 1518 1517 1516 1515 1514 1514 1513 1513 1513 1513 1514 1514 1515 1516 1517 1518 1520 1521 1523
1507 1509 1511 1513 1516 1518 1521 1521 1521 1526 1531 1533 1535 1536 1538 1539 1539 1538 1538 1538 1536 1535 1533 1531 1529 1526 1524 1522 1520 1518 1517 1516 1515 1514 1513 1512 1512 1511 1511 1511 1511 1511 1512 1513 1514 1515 1516 1518 1519
1507 1509 1517 1514 1516 1520 1525 1524 1520 1525 1528 1530 1533 1533 1535 1536 1537 1537 1537 1537 1535 1534 1532 1530 1528 1526 1524 1521 1519 1518 1516 1514 1513 1512 1511 1510 1509 1508 1508 1508 1508 1509 1509 1510 1511 1512 1513 1514 1515
1511 1523 1526 1521 1515 1517 1519 1521 1520 1523 1526 1528 1530 1531 1532 1534 1535 1535 1535 1536 1535 1533 1532 1530 1528 1525 1523 1521 1519 1517 1515 1513 1512 1511 1509 1508 1507 1506 1506 1505 1506 1506 1506 1507 1508 1509 1510 1511 1512
1521 1525 1523 1518 1513 1514 1515 1514 1515 1519 1523 1525 1526 1529 1530 1532 1533 1533 1534 1535 1534 1532 1531 1529 1527 1525 1523 1520 1519 1517 1515 1513 1511 1509 1508 1506 1505 1504 1504 1503 1503 1503 1504 1504 1505 1506 1506 1508 1509
1517 1516 1515 1508 1507 1512 1513 1512 1511 1516 1520 1523 1525 1526 1528 1529 1531 1532 1533 1533 1533 1532 1530 1529 1527 1524 1522 1520 1518 1516 1514 1512 1511 1509 1507 1505 1504 1503 1502 1501 1501 1501 1501 1501 1502 1502 1503 1504 1506
1517 1514 1508 1504 1506 1510 1511 1509 1507 1511 1516 1519 1522 1523 1525 1527 1530 1530 1532 1532 1532 1531 1530 1528 1526 1524 1522 1520 1518 1516 1515 1513 1511 1509 1507 1505 1503 1502 1500 1499 1499 1499 1499 1499 1499 1500 1500 1501 1503
1509 1507 1507 1510 1506 1506 1511 1512 1507 1508 1513 1517 1520 1523 1524 1525 1528 1530 1531 1531 1531 1530 1529 1528 1526 1524 1521 1520 1518 1516 1514 1512 1510 1509 1507 1505 1503 1501 1500 1498 1497 1497 1497 1497 1497 1497 1498 1498 1500
1507 1505 1508 1510 1515 1512 1509 1522 1510 1507 1512 1515 1518 1520 1523 1524 1527 1529 1530 1530 1530 1529 1528 1527 1525 1523 1521 1519 1517 1515 1514 1512 1511 1509 1507 1506 1504 1502 1500 1498 1497 1496 1495 1495 1495 1495 1495 1496 1496
1506 1506 1508 1510 1513 1515 1508 1516 1510 1506 1511 1512 1514 1518 1520 1523 1525 1527 1528 1529 1529 1528 1527 1526 1524 1523 1521 1519 1517 1516 1514 1512 1511 1509 1508 1506 1504 1502 1500 1498 1496 1495 1494 1493 1493 1493 1493 1493 1493
1506 1508 1507 1508 1512 1521 1505 1512 1514 1507 1509 1510 1513 1516 1519 1522 1524 1526 1527 1527 1528 1527 1526 1525 1524 1522 1520 1519 1517 1516 1514 1512 1511 1509 1507 1505 1504 1502 1500 1498 1496 1494 1493 1492 1491 1491 1490 1490 1491
1507 1514 1522 1523 1526 1515 1501 1510 1511 1507 1507 1510 1513 1515 1518 1520 1523 1524 1525 1526 1526 1526 1525 1524 1523 1522 1520 1518 1517 1515 1514 1512 1510 1508 1507 1505 1503 1501 1499 1497 1495 1494 1492 1491 1490 1489 1488 1488 1488
1504 1509 1523 1529 1518 1510 1505 1508 1509 1504 1508 1511 1513 1515 1517 1519 1521 1523 1524 1525 1525 1525 1524 1523 1522 1521 1520 1518 1516 1515 1513 1512 1510 1508 1506 1505 1503 1501 1499 1497 1495 1493 1492 1490 1488 1487 1487 1486 1486
1506 1505 1502 1514 1509 1511 1503 1501 1506 1503 1506 1510 1512 1514 1516 1518 1519 1521 1522 1523 1524 1524 1523 1523 1521 1520 1519 1518 1516 1514 1513 1511 1509 1507 1506 1504 1502 1500 1498 1496 1495 1493 1491 1489 1488 1486 1485 1484 1483
1506 1507 1508 1515 1520 1519 1506 1503 1508 1506 1506 1507 1509 1511 1514 1516 1517 1519 1520 1521 1522 1522 1522 1521 1520 1519 1518 1517 1515 1514 1512 1510 1508 1507 1505 1503 1501 1499 1498 1496 1494 1493 1491 1489 1487 1485 1484 1482 1481
1509 1510 1509 1510 1510 1522 1523 1518 1500 1503 1505 1507 1508 1510 1512 1513 1515 1517 1518 1519 1520 1520 1520 1520 1519 1518 1517 1516 1514 1513 1511 1509 1508 1506 1504 1502 1500 1499 1497 1495 1493 1492 1490 1488 1485 1483 1482 1480 1479
1500 1503 1506 1517 1512 1507 1518 1519 1500 1502 1504 1506 1508 1509 1510 1512 1514 1515 1517 1518 1519 1519 1519 1519 1518 1517 1516 1514 1513 1512 1511 1509 1507 1505 1503 1501 1499 1497 1496 1494 1492 1491 1488 1486 1484 1482 1480 1478 1477